Regional Weather Roundup
Issued by NWS Charleston, WV

Home | Current Version | Previous Version | Graphics & Text | Print | Product List | Glossary On
Versions: 1 2 3 4 5 6 7 8 9 10 11 12 13 14 15 16 17 18 19 20 21 22 23 24 25 26 27 28 29 30 31 32 33 34 35 36 37 38 39 40 41 42 43 44 45 46 47 48 49 50
000
ASUS41 KRLX 291610
RWRRLX
West Virginia Regional Weather Roundup
National Weather Service Charleston WV
1100 AM EST THU JAN 29 2015

Note: "fair" indicates few or no clouds below 12,000 feet with no
significant weather and/or obstructions to visibility.

WVZ003-291700-
Northern Panhandle of West Virginia

CITY           SKY/WX    TMP DP  RH WIND       PRES   REMARKS
WHEELING       FRZ RAIN  34  23  64 S12       29.91F
$$

WVZ009-291700-
Northwest West Virginia

CITY           SKY/WX    TMP DP  RH WIND       PRES   REMARKS
PARKERSBURG    LGT RAIN  34  28  79 S7        29.98S
$$

WVZ006-291700-
Western West Virginia

CITY           SKY/WX    TMP DP  RH WIND       PRES   REMARKS
HUNTINGTON     LGT RAIN  36  29  75 S10       29.95S
$$

WVZ015-291700-
West Central West Virginia

CITY           SKY/WX    TMP DP  RH WIND       PRES   REMARKS
CHARLESTON     LGT RAIN  40  28  62 S7        29.97F
$$

WVZ022-031-291700-
North Central West Virginia

CITY           SKY/WX    TMP DP  RH WIND       PRES   REMARKS
CLARKSBURG     CLOUDY    34  24  67 CALM      29.96F
MORGANTOWN     CLOUDY    44  12  27 S8        29.95F
$$

WVZ025-035-042-045-291700-
Southern West Virginia

CITY           SKY/WX    TMP DP  RH WIND       PRES   REMARKS
BECKLEY        PTSUNNY   38  16  40 SE15G22   30.03F
LOGAN          LGT RAIN  39  25  56 S8G16     30.01R
BLUEFIELD      MOSUNNY   45  15  30 VRB7      30.06F
LEWISBURG      CLOUDY    32  19  59 N8        30.11F
$$

WVZ047-291700-
Northern Mountains of West Virginia

CITY           SKY/WX    TMP DP  RH WIND       PRES   REMARKS
ELKINS         CLOUDY    38  19  46 S10       30.02R
$$

WVZ052-291700-
Eastern Panhandle of West Virginia

CITY           SKY/WX    TMP DP  RH WIND       PRES   REMARKS
MARTINSBURG    CLOUDY    28  14  55 CALM      30.19F
PETERSBURG     PTSUNNY   25  15  65 CALM      30.12F
$$


USA.gov is the U.S. government's official web portal to all federal, state and local government web resources and services.